Tracking 29969 objects as of 7-Dec-2024
HD Live streaming from Space Station
objects crossing your sky now

IRIDIUM 33 DEB

Track IRIDIUM 33 DEB now!
10-day predictions


NORAD ID: 35618
Int'l Code: 1997-051QQ
Perigee: 711.8 km
Apogee: 753.9 km
Inclination: 86.3 °
Period: 99.3 minutes
Semi major axis: 7103 km
RCS: 0.0121 m2 (small)
Launch date: September 14, 1997
Source: United States (US)
Launch site: TYURATAM MISSILE AND SPACE COMPLEX (TTMTR)

Note: This is SATELLITE DEBRIS
Your satellite tracking list
Your tracking list is empty




NASA's NSSDC Master Catalog

Two Line Element Set (TLE):
1 35618U 97051QQ  24341.75265323  .00004819  00000-0  12334-2 0  9999
2 35618  86.3402 155.4230 0029659 177.5483 182.5872 14.49973366818321
Source of the keplerian elements: AFSPC